Hourly Data Report for November 26, 2020

CARBERRY CS
MANITOBA
Current Station Operator: ECCC - MSC

49°54'20.900" N
99°21'26.800" W
383.50 m
5010547
71170
WZE

Download Data

Hourly Data (November 2020)
Hourly Data Report for November 26, 2020
TIME
LST
Temp Definition
°C
Dew Point Definition
°C
Rel Hum Definition
%
Precip. Amount Definition
mm

Wind Dir Definition
10's deg

Wind Spd Definition
km/h
Visibility Definition
km
Stn Press Definition
kPa
Hmdx Definition


Wind Chill Definition


Weather Definition


00:00 -2.6 -5.7 79 0.0 29 26   95.91   -9 LegendNANA
01:00 -2.3 -5.1 81 0.0 28 31   95.97   -10 LegendNANA
02:00 -2.0 -4.7 81 0.0 28 24   96.05   -8 LegendNANA
03:00 -1.8 -4.5 82 0.0 27 17   96.12   -7 LegendNANA
04:00 -1.3 -3.7 84 0.0 27 18   96.15   -7 LegendNANA
05:00 -0.6 -3.9 78 0.0 28 21   96.17   -6 LegendNANA
06:00 -0.8 -4.3 77 0.0 26 15   96.15   -5 LegendNANA
07:00 -1.2 -4.6 77 0.0 25 10   96.19   -5 LegendNANA
08:00 -2.5 -5.9 78 0.0 26 25   96.22   -9 LegendNANA
09:00 -2.7 -6.1 78 0.0 22 11   96.22   -7 LegendNANA
10:00 -1.7 -5.6 75 0.0 23 13   96.22   -6 LegendNANA
11:00 -1.0 -5.4 72 0.0 23 20   96.18   -7 LegendNANA
12:00 -0.1 -5.2 69 0.0 23 18   96.10   -5 LegendNANA
13:00 0.9 -4.8 66 0.0 22 23   96.03     LegendNANA
14:00 -0.2 -3.0 82 0.0 25 25   96.07   -6 LegendNANA
15:00 -0.1 -3.5 78 0.0 25 27   96.07   -6 LegendNANA
16:00 -0.4 -2.9 83 0.0 24 16   96.12   -5 LegendNANA
17:00 -0.3 -5.5 68 0.0 26 22   96.18   -6 LegendNANA
18:00 -2.9 -7.6 70 0.0 28 33   96.29   -11 LegendNANA
19:00 -3.6 -6.6 80 0.0 28 29   96.32   -11 LegendNANA
20:00 -4.5 -7.9 77 0.0 29 32   96.44   -13 LegendNANA
21:00 -5.3 -9.2 74 0.0 30 31   96.57   -14 LegendNANA
22:00 -6.7 -10.6 74 0.0 29 27   96.66   -15 LegendNANA
23:00 -8.3 -11.6 77 0.0 28 30   96.76   -17 LegendNANA

Notes on Data Quality.

Legend

  • E = Estimated
  • M = Missing
  • NA = Not Available*
  • [empty] = Indicates an unobserved value
Date modified: